Погода Запорожье

Погода Запорожье : погода сейчас, прогноз погоды и архив. Всё, что Вы хотите узнать о погоде Запорожье!

Хотите узнать прогноз погоды в Запорожье? Тогда Вам сюда: Погода в Запорожье

Поиск расширенной информации на нашем сайте:

Другие новости

Новости СМИ2

Главная страница сайта

Новости сайта

03.07.2017

Напоминаем, что на нашем специализированном сайте Метеоцентр.Азия вы можете получить высокодетализированные автоматические прогнозы погоды по пунктам России, СНГ и мира в авиационном формате (включающие направление и скорость ветра, видимость, явления погоды, количество и форму облачности, нижнюю и верхнюю границу облачности).


Погода Запорожье - сегодня

Время (UTC), дата Ветер
(°,м/с) 
Видим.   Явления Облачность Т
(°С)
Тd
(°С)
f(%) Тe
(°С)
Pmin
(гПа)
dP
(гПа)
Po
(мм)
O2
(г/м3)
Тmin Tmax R s Состояние
почвы
18 17.06.18 040 (СВ) 10 км    8/0 средняя, верхняя 
[Ac trans|Ci fib]
+23.8 +6.1 32 +24  1011.1  0.9  749  277    +31.5       
21 17.06.18 040 (СВ) 10 км    3/0 верхняя 
[Ci fib]
+20.7 +4.7 35 +21  1011.3  0.1  749  280           
00 18.06.18 040 (СВ) 10 км    ясно 
+17.5 +5.4 45 +18  1011.4  -0.1  749  283           
03 18.06.18 050 (СВ) 10 км    3/0 верхняя 
[Ci]
+17.3 +6.2 48 +18  1011.7  0.3  749  283        597   
06 18.06.18 070 (В) 10 км    3/0 верхняя 
[Ci fib]
+25.2 +6.9 31 +25  1011.4  0.1  749  275  +16.2        затоплена
водой 
09 18.06.18 040 (СВ) 10 км    ясно 
+28.5 +5.4 23 +29    -0.1             
12 18.06.18 040 (СВ) 10 км    ясно 
+29.8 +6.5 23 +30  1010.8  -0.3  749  271           
15 18.06.18 040 (СВ) 10 км    ясно 
+29.4 +5.5 22 +29    -0.7        40     
18 18.06.18 020 (С) 10 км    ясно 
+24.3 +5.1 29 +24  1011.3  0.9  749  276    +30.4       
21 18.06.18 020 (С) 10 км    ясно 
+21.4 +7.3 40 +21    10.2             
00 19.06.18 040 (СВ) 10 км    ясно 
+18.6 +6.4 45 +19  1013  0.7  750  282           
03 19.06.18 040 (СВ) 10 км    1/0 верхняя 
[Ci fib]
+19.6 +7.7 46 +20  1013.4  0.4  750  281           
06 19.06.18 050 (СВ) 10 км    3/0 верхняя 
[Ci fib]
+26.7 +9.6 34 +27  1014.1  751  274  +17.9         
09 19.06.18 060 (СВ) 10 км    ясно 
+29.9 +8.3 26 +30  1013.8  -0.1  751  271           
12 19.06.18 030 (СВ) 10 км    4/0 средняя, верхняя 
[Ac trans|Ci fib]
+31.6 +7.3 22 +32  1013.2  -0.6  751  270           
15 19.06.18 350 (С) 10 км    4/0 средняя, верхняя 
[Ac trans|Ci fib]
+30.8 +10.2 28 +32  1012.6  -0.6  750  270        697   
18 19.06.18 330 (СЗ) 10 км    ясно 
+24.7 +10.9 42 +27  1013.6  0.8  751  275    +31.8       
21 19.06.18 330 (СЗ) 10 км    ясно 
+20.4 +11.6 57 +24  1014.4  0.6  751  279           
00 20.06.18 330 (СЗ) 10 км    ясно 
+18.3 +11.8 66 +23  1015  0.5  752  282           
03 20.06.18 320 (СЗ) 10 км    4/0 верхняя 
[Ci fib]
+19.8 +13.3 66 +27  1015.5  0.5  752  280           
06 20.06.18 320 (СЗ) 10 км    3/0 верхняя 
[Ci fib]
+27.9 +13.5 41 +34  1015.4  0.3  752  272  +16.9         
09 20.06.18 340 (С) 10 км    3/0 верхняя 
[Ci fib]
+30.7 +12.1 32 +35  1015.2  -0.1  752  270           
12 20.06.18 300 (СЗ) 10 км    5/3 1500 м средняя, верхняя 
[Cu hum|Ac trans|Ci fib]
+32.1 +14.3 34 +40  1014.2  -0.9  751  268           
15 20.06.18 330 (СЗ) 10 км    4/3 1500 м верхняя 
[Cu hum|Ci fib]
+31 +16.6 42 +43  1013.8  -0.5  751  268        598   
18 20.06.18 340 (С) 10 км    6/0 верхняя 
[Ci fib]
+27.1 +16.4 52 +38  1014.3  0.4  751  272    +32.5       
Время (UTC), дата Ветер
(°,м/с) 
Видим.   Явления Облачность Т
(°С)
Тd
(°С)
f(%) Тe
(°С)
Pmin
(гПа)
dP
(гПа)
Po
(мм)
O2
(г/м3)
Тmin Tmax R s Состояние
почвы

Для получения пояснительной информации подведите курсор к названию столбца.

ПОГОДА Запорожье - архив

Всё, что Вы хотите узнать о погоде Запорожье - удобно и подробно!

Выберите нужную дату (начиная с 1 января 2015* года) и нажмите кнопку "Найти".
Будут отображены архивные сводки погоды по пункту Запорожье, начиная с указанной даты.


Отображать данные в формате CSV (для использования в таблицах Excel)


Внимание! Наш архив погоды предназначен исключительно для личного некоммерческого использования в познавательных целях. Если Вам необходимы официальные справки о состоянии погоды (для производственных, юридических, коммерческих и т.п. целей), обращайтесь в органы Росгидромета.

*Примечание: данная дата относится к архиву по метеостанциям СССР (Россия, СНГ, Балтия).
Архив по метеостанциям Зарубежной Европы и Азии (кроме Китая) хранится 10 дней, по другим регионам земного шара (Китай, Африка, Америка, Австралия, Океания) - 1 день.

Запорожье - район местоположения метеостанции


Название, широта, долгота, высота метеостанции:
Запорожье 47.8°ш. 35°д. 112 м над ур. моря [Украина]

Дополнительная информация

В oтличие oт бoльшинства пoгoдных сайтoв мы публикуем пoдрoбную метеoинфoрмацию в детальнoм прoфессиoнальнoм фoрмате.

Характеристики температуры и влажнoсти вoздуха измеряются на высoте 2 м в тени вдали oт зданий и деревьев.
Скoрoсть ветра измеряется на высoте 10 м (на урoвне рoста челoвека скoрoсть ветра ниже в 1.5-2 раза). Если метеoстанция нахoдится в гoрoде или в лесу, тo скoрoсть ветра занижена на 2-4 м/с пo сравнению с oткрытым местoм. Скoрoсть ветра над акватoриями крупных рек и oзёр, а также на вершинах хoлмoв на 2-5 м/с выше, чем в oбычных услoвиях.
Атмoсфернoе давление в разных тoчках местнoсти мoжет значительнo oтличаться oт давления на метеoстанции, в зависимoсти oт услoвий рельефа (при пoдъёме на 10 м давление пoнижается примернo на 1 мм рт.ст.).